TimeEDT,TemperatureF,Dew PointF,Humidity,Sea Level PressureIn,VisibilityMPH,Wind Direction,Wind SpeedMPH,Gust SpeedMPH,PrecipitationIn,Events,Conditions,WindDirDegrees,DateUTC
12:15 AM,44.6,37.4,76,29.90,10.0,NW,3.5,-,N/A,,Overcast,320,2013-03-17 04:15:00
12:35 AM,44.6,37.4,76,29.91,10.0,WNW,3.5,-,N/A,,Scattered Clouds,300,2013-03-17 04:35:00
12:55 AM,44.6,35.6,71,29.92,10.0,WNW,5.8,-,N/A,,Scattered Clouds,290,2013-03-17 04:55:00
1:15 AM,44.6,35.6,71,29.91,10.0,WNW,3.5,-,N/A,,Scattered Clouds,300,2013-03-17 05:15:00
1:35 AM,42.8,35.6,76,29.91,10.0,West,5.8,-,N/A,,Clear,280,2013-03-17 05:35:00
1:55 AM,42.8,35.6,76,29.91,7.0,West,6.9,-,N/A,,Clear,260,2013-03-17 05:55:00
2:15 AM,42.8,35.6,76,29.92,7.0,West,6.9,-,N/A,,Scattered Clouds,270,2013-03-17 06:15:00
2:35 AM,41.0,35.6,81,29.92,7.0,West,5.8,-,N/A,,Scattered Clouds,260,2013-03-17 06:35:00
2:55 AM,41.0,35.6,81,29.92,7.0,West,6.9,-,N/A,,Mostly Cloudy,270,2013-03-17 06:55:00
3:15 AM,41.0,35.6,81,29.92,7.0,West,8.1,-,N/A,,Mostly Cloudy,260,2013-03-17 07:15:00
3:35 AM,41.0,35.6,81,29.92,7.0,WSW,5.8,-,N/A,,Scattered Clouds,250,2013-03-17 07:35:00
3:55 AM,41.0,33.8,76,29.92,7.0,SW,5.8,-,N/A,,Scattered Clouds,230,2013-03-17 07:55:00
4:15 AM,39.2,33.8,81,29.92,7.0,SW,6.9,-,N/A,,Mostly Cloudy,230,2013-03-17 08:15:00
4:35 AM,41.0,33.8,76,29.91,7.0,WSW,5.8,-,N/A,,Overcast,250,2013-03-17 08:35:00
4:55 AM,41.0,33.8,76,29.91,7.0,WSW,5.8,-,N/A,,Overcast,250,2013-03-17 08:55:00
5:15 AM,41.0,33.8,76,29.92,7.0,WSW,5.8,-,N/A,,Overcast,250,2013-03-17 09:15:00
5:35 AM,41.0,33.8,76,29.93,7.0,West,3.5,-,N/A,,Overcast,270,2013-03-17 09:35:00
5:55 AM,41.0,35.6,81,29.94,7.0,Calm,Calm,-,N/A,,Overcast,0,2013-03-17 09:55:00
6:35 AM,39.2,35.6,87,29.96,5.0,SSW,4.6,-,N/A,,Overcast,200,2013-03-17 10:35:00
6:55 AM,39.2,35.6,87,29.96,7.0,WSW,4.6,-,N/A,,Overcast,250,2013-03-17 10:55:00
7:15 AM,41.0,33.8,76,29.97,7.0,West,5.8,-,N/A,,Overcast,260,2013-03-17 11:15:00
7:35 AM,41.0,33.8,76,29.98,7.0,WSW,4.6,-,N/A,,Overcast,250,2013-03-17 11:35:00
7:55 AM,41.0,33.8,76,29.99,7.0,West,4.6,-,N/A,,Overcast,260,2013-03-17 11:55:00
8:15 AM,41.0,33.8,76,30.02,7.0,West,3.5,-,N/A,,Light Drizzle,280,2013-03-17 12:15:00
8:35 AM,39.2,33.8,81,30.03,5.0,NW,3.5,-,N/A,Rain,Light Rain,320,2013-03-17 12:35:00
8:55 AM,39.2,33.8,81,30.04,5.0,WNW,4.6,-,0.01,,Haze,290,2013-03-17 12:55:00
9:15 AM,39.2,33.8,81,30.04,5.0,Calm,Calm,-,N/A,,Haze,0,2013-03-17 13:15:00
9:35 AM,39.2,33.8,81,30.03,7.0,NNW,3.5,-,N/A,,Overcast,330,2013-03-17 13:35:00
9:55 AM,39.2,33.8,81,30.03,7.0,NW,3.5,-,N/A,,Overcast,310,2013-03-17 13:55:00
10:15 AM,39.2,33.8,81,30.04,7.0,Calm,Calm,-,N/A,,Overcast,0,2013-03-17 14:15:00
10:35 AM,39.2,33.8,81,30.05,5.0,NW,3.5,-,N/A,,Haze,320,2013-03-17 14:35:00
10:55 AM,39.2,32.0,75,30.07,10.0,NW,5.8,-,N/A,,Overcast,320,2013-03-17 14:55:00
11:15 AM,37.4,32.0,81,30.05,10.0,Calm,Calm,-,N/A,,Overcast,0,2013-03-17 15:15:00
11:35 AM,37.4,32.0,81,30.06,10.0,Calm,Calm,-,N/A,,Overcast,0,2013-03-17 15:35:00
11:55 AM,37.4,32.0,81,30.06,10.0,Calm,Calm,-,N/A,,Overcast,0,2013-03-17 15:55:00
12:15 PM,39.2,32.0,75,30.06,10.0,Calm,Calm,-,N/A,,Overcast,0,2013-03-17 16:15:00
12:35 PM,39.2,32.0,75,30.05,10.0,Calm,Calm,-,N/A,,Overcast,0,2013-03-17 16:35:00
12:55 PM,39.2,32.0,75,30.05,10.0,Calm,Calm,-,N/A,,Overcast,0,2013-03-17 16:55:00
1:15 PM,39.2,32.0,75,30.05,10.0,NNE,3.5,-,N/A,,Overcast,30,2013-03-17 17:15:00
1:35 PM,37.4,32.0,81,30.04,10.0,NNE,3.5,-,N/A,,Overcast,30,2013-03-17 17:35:00
1:55 PM,37.4,32.0,81,30.04,10.0,North,6.9,-,N/A,,Overcast,10,2013-03-17 17:55:00
2:15 PM,37.4,32.0,81,30.03,10.0,NE,4.6,-,N/A,,Overcast,40,2013-03-17 18:15:00
2:35 PM,37.4,32.0,81,30.03,10.0,North,6.9,-,N/A,,Overcast,10,2013-03-17 18:35:00
2:55 PM,39.2,32.0,75,30.03,10.0,NNE,8.1,-,N/A,,Overcast,20,2013-03-17 18:55:00
3:15 PM,39.2,32.0,75,30.03,10.0,NNE,8.1,-,N/A,,Overcast,30,2013-03-17 19:15:00
3:35 PM,37.4,32.0,81,30.02,10.0,NE,4.6,-,N/A,,Overcast,40,2013-03-17 19:35:00
3:55 PM,39.2,32.0,75,30.02,10.0,NE,4.6,-,N/A,,Overcast,40,2013-03-17 19:55:00
4:15 PM,39.2,33.8,81,30.02,10.0,NNE,6.9,-,N/A,,Overcast,30,2013-03-17 20:15:00
4:35 PM,39.2,33.8,81,30.02,10.0,NE,5.8,-,N/A,,Overcast,40,2013-03-17 20:35:00
4:55 PM,39.2,33.8,81,30.03,10.0,NE,5.8,-,N/A,,Overcast,40,2013-03-17 20:55:00
5:15 PM,37.4,33.8,87,30.03,10.0,ENE,6.9,-,N/A,,Overcast,70,2013-03-17 21:15:00
5:35 PM,37.4,33.8,87,30.03,10.0,ENE,6.9,-,N/A,,Overcast,70,2013-03-17 21:35:00
5:55 PM,37.4,32.0,81,30.03,10.0,ENE,5.8,-,N/A,,Overcast,60,2013-03-17 21:55:00
6:15 PM,37.4,32.0,81,30.05,5.0,East,5.8,-,N/A,,Haze,80,2013-03-17 22:15:00
6:35 PM,37.4,33.8,87,30.05,3.0,ESE,4.6,-,N/A,,Overcast,110,2013-03-17 22:35:00
6:55 PM,35.6,33.8,93,30.06,4.0,ESE,5.8,-,N/A,,Light Drizzle,120,2013-03-17 22:55:00
7:15 PM,35.6,33.8,93,30.06,4.0,East,6.9,-,0.01,Rain,Light Rain,100,2013-03-17 23:15:00
7:35 PM,35.6,33.8,93,30.07,7.0,East,4.6,-,0.01,,Drizzle,80,2013-03-17 23:35:00
7:55 PM,35.6,33.8,93,30.06,5.0,SE,3.5,-,0.03,Rain,Light Rain,140,2013-03-17 23:55:00
8:15 PM,35.6,33.8,93,30.07,3.0,Calm,Calm,-,0.03,Rain,Rain,0,2013-03-18 00:15:00
8:35 PM,35.6,32.0,87,30.07,4.0,ESE,6.9,-,0.05,Rain,Light Rain,110,2013-03-18 00:35:00
8:55 PM,33.8,32.0,93,30.07,5.0,East,4.6,-,0.08,Rain,Light Rain,100,2013-03-18 00:55:00
9:15 PM,33.8,32.0,93,30.07,10.0,East,3.5,-,0.01,Rain,Rain,90,2013-03-18 01:15:00
9:35 PM,33.8,32.0,93,30.09,10.0,East,3.5,-,0.01,,Overcast,100,2013-03-18 01:35:00
9:55 PM,33.8,32.0,93,30.09,7.0,Calm,Calm,-,0.01,,Drizzle,0,2013-03-18 01:55:00
10:15 PM,33.8,32.0,93,30.10,7.0,East,8.1,-,0.01,Rain,Rain,90,2013-03-18 02:15:00
10:35 PM,33.8,32.0,93,30.09,5.0,ENE,6.9,-,0.02,Rain,Rain,70,2013-03-18 02:35:00
10:55 PM,33.8,32.0,93,30.10,7.0,East,3.5,-,0.02,,Drizzle,90,2013-03-18 02:55:00
11:15 PM,33.8,32.0,93,30.10,5.0,ENE,3.5,-,0.01,Rain,Light Rain,70,2013-03-18 03:15:00
11:35 PM,33.8,32.0,93,30.09,10.0,East,4.6,-,0.02,,Light Drizzle,80,2013-03-18 03:35:00
11:55 PM,33.8,32.0,93,30.10,10.0,East,5.8,-,0.02,,Overcast,100,2013-03-18 03:55:00